Change the Weather History Date:

Monday, February 4, 2013

  Actual Average Record
Temperature  
Mean Temperature 10 °F -  
Max Temperature 17 °F 14 °F 42 °F (2003)
Min Temperature 3 °F 2 °F -40 °F (1999)
Degree Days  
Heating Degree Days 55    
Moisture  
Dew Point 6 °F    
Average Humidity 83    
Maximum Humidity 100    
Minimum Humidity 66    
Precipitation  
Precipitation 0.00 in - - ()
Sea Level Pressure  
Sea Level Pressure 29.50 in    
Wind  
Wind Speed 4 mph (ENE)    
Max Wind Speed 8 mph    
Max Gust Speed -    
Visibility 10 miles    
Events      
Averages and records for this station are not official NWS values.
T = Trace of Precipitation, MM = Missing Value Source: NWS Daily Summary

Daily Weather History Graph

Daily Weather History Graph

Search for Another Location

Airport or City:

Trip Planner

Search our weather history database for the weather conditions in past years. The results will help you decide how hot, cold, wet, or windy it might be!

Date:

Astronomy

Feb. 04, 2013 Rise Set
Actual Time 9:51 AM AKST 5:53 PM AKST
Civil Twilight 9:02 AM AKST 6:42 PM AKST
Nautical Twilight 8:09 AM AKST 7:35 PM AKST
Astronomical Twilight 7:18 AM AKST 8:26 PM AKST
Moon 5:10 AM AKST (2/4) 11:54 AM AKST (2/4)
Length of Visible Light 9h 40m
Length of Day
8h 01m
Waning Crescent, 35% of the Moon is Illuminated
Feb 4
Waning Crescent
Feb 9
New
Feb 17
First Quarter
Feb 25
Full
Mar 4
Last Quarter

Hourly Weather History & Observations

Time (AKST) Temp. Windchill Dew Point Humidity Pressure Visibility Wind Dir Wind Speed Gust Speed Precip Events Conditions
12:16 AM 8.6 °F 2.0 °F 3.2 °F 79% 29.42 in 10.0 mi ENE 3.5 mph - N/A   Clear
1:56 AM 6.8 °F -3.5 °F 5.0 °F 92% 29.44 in 10.0 mi NE 5.8 mph - N/A   Clear
2:16 AM 6.8 °F -4.8 °F 1.4 °F 79% 29.44 in 10.0 mi NE 6.9 mph - N/A   Clear
2:36 AM 6.8 °F -2.0 °F 3.2 °F 85% 29.44 in 10.0 mi NNE 4.6 mph - N/A   Clear
2:56 AM 8.6 °F - 6.8 °F 92% 29.45 in 10.0 mi Calm Calm - N/A   Clear
3:16 AM 8.6 °F 2.0 °F 1.4 °F 73% 29.45 in 10.0 mi NE 3.5 mph - N/A   Clear
3:36 AM 8.6 °F 2.0 °F 3.2 °F 79% 29.46 in 10.0 mi East 3.5 mph - N/A   Clear
3:56 AM 6.8 °F -0.1 °F 5.0 °F 92% 29.46 in 10.0 mi East 3.5 mph - N/A   Mostly Cloudy
4:16 AM 8.6 °F 0.1 °F 3.2 °F 79% 29.46 in 10.0 mi NE 4.6 mph - N/A   Overcast
4:36 AM 8.6 °F 0.1 °F 6.8 °F 92% 29.46 in 10.0 mi East 4.6 mph - N/A   Overcast
4:56 AM 8.6 °F -1.3 °F 3.2 °F 79% 29.46 in 10.0 mi NE 5.8 mph - N/A   Overcast
5:16 AM 6.8 °F -4.8 °F 1.4 °F 79% 29.47 in 10.0 mi ENE 6.9 mph - N/A   Mostly Cloudy
5:36 AM 6.8 °F -0.1 °F 5.0 °F 92% 29.47 in 10.0 mi East 3.5 mph - N/A   Partly Cloudy
5:56 AM 6.8 °F -2.0 °F -0.4 °F 72% 29.47 in 10.0 mi East 4.6 mph - N/A   Clear
6:16 AM 8.6 °F 2.0 °F 8.6 °F 100% 29.47 in 10.0 mi East 3.5 mph - N/A   Clear
6:36 AM 6.8 °F -2.0 °F -0.4 °F 72% 29.47 in 10.0 mi East 4.6 mph - N/A   Clear
6:56 AM 6.8 °F -2.0 °F 5.0 °F 92% 29.47 in 10.0 mi East 4.6 mph - N/A   Clear
7:16 AM 6.8 °F -3.5 °F 1.4 °F 79% 29.48 in 10.0 mi ESE 5.8 mph - N/A   Clear
7:36 AM 6.8 °F -3.5 °F 5.0 °F 92% 29.48 in 10.0 mi ENE 5.8 mph - N/A   Clear
7:56 AM 5.0 °F -2.1 °F -0.4 °F 78% 29.48 in 10.0 mi ENE 3.5 mph - N/A   Clear
8:16 AM 6.8 °F - 3.2 °F 85% 29.48 in 10.0 mi Calm Calm - N/A   Clear
8:36 AM 5.0 °F -2.1 °F -0.4 °F 78% 29.49 in 10.0 mi East 3.5 mph - N/A   Clear
8:56 AM 3.2 °F - 1.4 °F 92% 29.49 in 10.0 mi Calm Calm - N/A   Clear
9:16 AM 3.2 °F -7.8 °F -0.4 °F 85% 29.50 in 10.0 mi East 5.8 mph - N/A   Clear
9:36 AM 3.2 °F - -5.8 °F 66% 29.50 in 10.0 mi Calm Calm - N/A   Clear
9:56 AM 3.2 °F -4.2 °F 3.2 °F 100% 29.51 in 10.0 mi ENE 3.5 mph - N/A   Clear
10:16 AM 3.2 °F - -4.0 °F 72% 29.51 in 10.0 mi Calm Calm - N/A   Partly Cloudy
10:36 AM 3.2 °F -4.2 °F 3.2 °F 100% 29.51 in 10.0 mi ENE 3.5 mph - N/A   Clear
10:56 AM 3.2 °F - 1.4 °F 92% 29.51 in 10.0 mi Calm Calm - N/A   Clear
11:16 AM 6.8 °F -3.5 °F 5.0 °F 92% 29.51 in 10.0 mi East 5.8 mph - N/A   Clear
11:36 AM 6.8 °F - 1.4 °F 79% 29.52 in 10.0 mi Calm Calm - N/A   Clear
11:56 AM 6.8 °F -3.5 °F 6.8 °F 100% 29.53 in 10.0 mi ENE 5.8 mph - N/A   Clear
12:16 PM 8.6 °F -2.6 °F 3.2 °F 79% 29.53 in 10.0 mi ENE 6.9 mph - N/A   Clear
12:36 PM 10.4 °F 0.8 °F 5.0 °F 79% 29.53 in 10.0 mi ENE 5.8 mph - N/A   Clear
12:56 PM 10.4 °F -1.5 °F 6.8 °F 85% 29.53 in 10.0 mi ENE 8.1 mph - N/A   Scattered Clouds
1:16 PM 10.4 °F -0.4 °F 6.8 °F 85% 29.52 in 10.0 mi ENE 6.9 mph - N/A   Overcast
1:36 PM 12.2 °F 4.3 °F 6.8 °F 79% 29.52 in 10.0 mi ENE 4.6 mph - N/A   Mostly Cloudy
1:56 PM 12.2 °F 2.9 °F 6.8 °F 79% 29.53 in 10.0 mi ENE 5.8 mph - N/A   Mostly Cloudy
2:16 PM 12.2 °F 2.9 °F 8.6 °F 85% 29.52 in 10.0 mi NE 5.8 mph - N/A   Mostly Cloudy
2:36 PM 14.0 °F 6.5 °F 8.6 °F 79% 29.53 in 10.0 mi ENE 4.6 mph - N/A   Mostly Cloudy
2:56 PM 14.0 °F 6.5 °F 10.4 °F 86% 29.52 in 10.0 mi NNE 4.6 mph - N/A   Mostly Cloudy
3:16 PM 15.8 °F 10.2 °F 8.6 °F 73% 29.52 in 10.0 mi NE 3.5 mph - N/A   Scattered Clouds
3:36 PM 15.8 °F - 10.4 °F 79% 29.51 in 10.0 mi Calm Calm - N/A   Partly Cloudy
3:56 PM 15.8 °F 8.6 °F 10.4 °F 79% 29.51 in 10.0 mi ENE 4.6 mph - N/A   Partly Cloudy
4:16 PM 17.6 °F 10.7 °F 12.2 °F 79% 29.51 in 10.0 mi NE 4.6 mph - N/A   Partly Cloudy
4:36 PM 17.6 °F 10.7 °F 12.2 °F 79% 29.51 in 10.0 mi ENE 4.6 mph - N/A   Mostly Cloudy
4:56 PM 17.6 °F 12.3 °F 10.4 °F 73% 29.50 in 10.0 mi NE 3.5 mph - N/A   Scattered Clouds
5:16 PM 15.8 °F - 8.6 °F 73% 29.50 in 10.0 mi Calm Calm - N/A   Clear
5:36 PM 15.8 °F - 8.6 °F 73% 29.51 in 10.0 mi Calm Calm - N/A   Partly Cloudy
5:56 PM 12.2 °F 6.1 °F 8.6 °F 85% 29.51 in 10.0 mi ENE 3.5 mph - N/A   Scattered Clouds
6:16 PM 12.2 °F 4.3 °F 6.8 °F 79% 29.51 in 10.0 mi ENE 4.6 mph - N/A   Scattered Clouds
6:36 PM 12.2 °F - 10.4 °F 92% 29.50 in 10.0 mi Calm Calm - N/A   Overcast
6:56 PM 12.2 °F 4.3 °F 10.4 °F 92% 29.50 in 10.0 mi ENE 4.6 mph - N/A   Overcast
7:16 PM 12.2 °F - 5.0 °F 73% 29.50 in 10.0 mi Calm Calm - N/A   Overcast
7:36 PM 12.2 °F 6.1 °F 8.6 °F 85% 29.51 in 10.0 mi SSW 3.5 mph - N/A   Overcast
7:56 PM 12.2 °F - 10.4 °F 92% 29.51 in 10.0 mi Calm Calm - N/A   Overcast
8:16 PM 12.2 °F 6.1 °F 6.8 °F 79% 29.50 in 10.0 mi NE 3.5 mph - N/A   Mostly Cloudy
8:36 PM 12.2 °F 2.9 °F 6.8 °F 79% 29.51 in 10.0 mi ENE 5.8 mph - N/A   Overcast
8:56 PM 12.2 °F 4.3 °F 12.2 °F 100% 29.51 in 10.0 mi NNE 4.6 mph - N/A   Overcast
9:16 PM 14.0 °F 2.9 °F 10.4 °F 86% 29.51 in 10.0 mi NE 8.1 mph - N/A   Overcast
9:36 PM 14.0 °F 2.9 °F 8.6 °F 79% 29.50 in 10.0 mi NE 8.1 mph - N/A   Overcast
9:56 PM 15.8 °F 8.6 °F 12.2 °F 86% 29.51 in 10.0 mi ENE 4.6 mph - N/A   Overcast
10:16 PM 15.8 °F - 14.0 °F 93% 29.51 in 10.0 mi Calm Calm - N/A   Overcast
10:36 PM 15.8 °F - 12.2 °F 86% 29.51 in 10.0 mi Calm Calm - N/A   Overcast
10:56 PM 15.8 °F 10.2 °F 8.6 °F 73% 29.51 in 10.0 mi East 3.5 mph - N/A   Overcast
11:16 PM 15.8 °F 7.2 °F 12.2 °F 86% 29.51 in 10.0 mi ENE 5.8 mph - N/A   Overcast
11:36 PM 15.8 °F 5.1 °F 12.2 °F 86% 29.51 in 10.0 mi ENE 8.1 mph - N/A   Mostly Cloudy
11:56 PM 15.8 °F 7.2 °F 12.2 °F 86% 29.51 in 10.0 mi ENE 5.8 mph - N/A   Partly Cloudy